Regional Weather Roundup
Issued by NWS

Home | Current Version | Previous Version | Text Only | Print | Product List | Glossary Off
Versions: 1 2 3 4 5 6 7 8 9 10 11 12 13 14 15 16 17 18 19 20 21 22 23 24 25 26 27 28 29 30 31 32 33 34 35 36 37 38 39 40 41 42 43 44 45 46 47 48 49 50

000
ASUS43 KMKX 261510
RWRWI

WISCONSIN REGIONAL WEATHER ROUNDUP
NATIONAL WEATHER SERVICE MILWAUKEE/SULLIVAN WI
1000 AM CDT THU MAR 26 2015

NOTE: "FAIR" INDICATES FEW OR NO CLOUDS BELOW 12,000 FEET WITH NO
SIGNIFICANT WEATHER AND/OR OBSTRUCTIONS TO VISIBILITY.

WIZ001-002-006>008-014>016-023>028-261600-
NORTHWEST WISCONSIN

CITY           SKY/WX    TMP DP  RH WIND       PRES   REMARKS
SUPERIOR ARPT  PTSUNNY   27  14  57 NE9       30.13R WCI  18
ASHLAND        CLOUDY    24  14  65 N10       30.10R WCI  14
HAYWARD        FLURRIES  23  13  65 NW8G17    30.06R WCI  14
SIREN          CLOUDY    28  15  59 N13G18    30.09S WCI  17
CUMBERLAND     CLOUDY    28  14  54 N17G24    30.05R WCI  16
RICE LAKE      CLOUDY    29  19  67 N10       30.06R WCI  20
CHETEK         CLOUDY    29  19  67 N10G17    30.05R WCI  19
LADYSMITH      CLOUDY    27  17  65 N16G22    30.04R WCI  14
EAU CLAIRE     CLOUDY    31  17  56 NW15G22   30.04S WCI  20
MENOMONIE      CLOUDY    32  18  56 NW16      30.06R WCI  21
NEW RICHMOND   CLOUDY    30  17  57 N18G24    30.09R WCI  18
OSCEOLA        CLOUDY    31  17  57 NW14G20   30.12R WCI  21
$$

WIZ003>005-009-010-017-018-261600-
NORTH CENTRAL WISCONSIN

CITY           SKY/WX    TMP DP  RH WIND       PRES   REMARKS
MANITOWISH WTR FLURRIES  21  14  75 N10G16    29.97S WCI  10
ARBOR VITAE    LGT SNOW  23  16  73 N18       29.96R WCI   9
WOODRUFF       LGT SNOW  23  16  73 N18       29.96R WCI   9
RHINELANDER    CLOUDY    23  13  65 NW14G24   29.94R WCI  11
EAGLE RIVER    LGT SNOW  23  15  71 N20       29.93R WCI   8
LAND O LAKES   LGT SNOW  21  16  79 N10       29.95R WCI  10
PHILLIPS       FLURRIES  22  14  72 N8        29.99R WCI  13
TOMAHAWK       LGT SNOW  24  16  72 NW13G21   29.97R WCI  12
MEDFORD        CLOUDY    25  16  68 N16       29.98R WCI  12
MERRILL        FLURRIES  26  18  71 N14G20    29.96R WCI  14
$$

WIZ029-030-035-036-043>047-261600-
CENTRAL WISCONSIN

CITY           SKY/WX    TMP DP  RH WIND       PRES   REMARKS
WAUSAU         CLOUDY    27  17  66 NW15      29.95R WCI  15
MOSINEE        CLOUDY    28  19  69 N18       29.97R WCI  16
MARSHFIELD     CLOUDY    30  20  66 NW18      29.97R WCI  18
STEVENS POINT  CLOUDY    29  19  66 NW10      29.97R WCI  20
WAUPACA        CLOUDY    34  20  57 NW8G16    29.96S WCI  27
WAUTOMA        CLOUDY    33  22  64 NW13      29.98R WCI  24
WISC RAPIDS    CLOUDY    31  18  58 NW14G21   29.99R WCI  21
CAMP DOUGLAS   CLOUDY    32  21  64 W14G22    30.00R WCI  22
$$

WIZ011>013-019>022-031-037>040-048>050-261600-
NORTHEAST WISCONSIN

CITY           SKY/WX    TMP DP  RH WIND       PRES   REMARKS
ANTIGO         CLOUDY    25  19  77 N18       29.93R WCI  11
SHAWANO        CLOUDY    33  22  63 N10G20    29.94S WCI  24
OCONTO         CLOUDY    32  22  65 NW13G18   29.92S WCI  23
STURGEON BAY   CLOUDY    32  21  64 NW13      29.93R WCI  22
GREEN BAY      CLOUDY    34  23  64 NW12      29.94R WCI  25
MANITOWOC      CLOUDY    35  24  64 NW9       29.93R WCI  28
APPLETON       CLOUDY    32  19  59 NW15G22   29.94R WCI  22
CLINTONVILLE   CLOUDY    32  21  64 N15G21    29.94S WCI  22
OSHKOSH        CLOUDY    34  22  61 NW9       29.94S WCI  27
$$

WIZ032>034-041-042-053>061-261600-
SOUTHWEST WISCONSIN

CITY           SKY/WX    TMP DP  RH WIND       PRES   REMARKS
LA CROSSE      CLOUDY    34  22  61 NW14      30.04R WCI  25
SPARTA         CLOUDY    32  20  61 NW14      30.04R WCI  22
VIROQUA        CLOUDY    31  23  71 NW10      30.00S WCI  23
BOSCOBEL       CLOUDY    35  21  56 NW7G18    30.05R WCI  29
PRAIRIE DU CHI CLOUDY    33  20  58 W10G22    30.06S WCI  25
PLATTEVILLE    PTSUNNY   33  24  69 NW12G17   30.02S WCI  24
$$

WIZ056-057-062-063-064-067-068-261600-
SOUTH CENTRAL WISCONSIN

CITY           SKY/WX    TMP DP  RH WIND       PRES   REMARKS
REEDSBURG      CLOUDY    33  20  59 NW13      29.99S WCI  24
BARABOO/DELLS  CLOUDY    33  20  58 NW9       29.98F WCI  25
LONE ROCK      CLOUDY    34  22  61 NW12      30.02S WCI  25
MINERAL POINT  CLOUDY    34  23  64 NW13      30.00S WCI  25
MADISON        CLOUDY    35  21  56 NW9G18    29.98S WCI  28
MIDDLETON      CLOUDY    36  22  56 NW13      29.99S WCI  27
WATERTOWN      CLOUDY    35  23  59 W14       29.96S WCI  26
MONROE         CLOUDY    32  27  80 NW8       29.99S WCI  25
JANESVILLE     CLOUDY    36  25  64 NW10      29.99R WCI  28
$$

WIZ051-052-058>065-066-070>072-261600-
SOUTHEAST WISCONSIN

CITY           SKY/WX    TMP DP  RH WIND       PRES   REMARKS
MILWAUKEE      CLOUDY    38  20  48 NW14      29.96S WCI  30
WAUKESHA       CLOUDY    34  23  64 NW12      29.96S WCI  25
MILWAUKEE/TIMM CLOUDY    37  19  48 NW15      29.96S WCI  28
RACINE         CLOUDY    38  21  50 NW10G18   29.97S WCI  31
BURLINGTON     CLOUDY    36  22  57 NW13G20   29.97S WCI  27
KENOSHA        CLOUDY    38  24  57 NW9       29.96S WCI  31
FOND DU LAC    CLOUDY    35  21  56 NW13      29.95S WCI  26
SHEBOYGAN      CLOUDY    35  22  58 W14       29.93S WCI  26
WEST BEND      CLOUDY    34  21  60 W10       29.94F WCI  26
JUNEAU         CLOUDY    33  21  60 NW13G21   29.97S WCI  24
$$

LSZ147-162-261600-
LAKE SUPERIOR

STATION/POSITION TIME  TEMP    WIND        PRES    WAVE
                       AIR SEA DIR/SP/G            HT/PER
                 (UTC) (F)     (DEG/KT/KT) (MB)    (FT/S)
DEVILS ISLAND    1500   20     340/ 19/ 20 1020.9R
PORT WING        1400   24     360/ 13/ 19 1020.0R
SAXON HARBOR     1400   24     360/ 19/ 23 1018.3
$$

LMZ867-665-643>646-261600-
LAKE MICHIGAN

STATION/POSITION TIME  TEMP    WIND        PRES    WAVE
                       AIR SEA DIR/SP/G            HT/PER
                 (UTC) (F)     (DEG/KT/KT) (MB)    (FT/S)
NORTHPORT PIER   1403   32     300/  9/ 24 1012.5R
SISTER BAY       1447   32     330/ 19/ 21   N/A
KEWAUNEE LAKESHO 1400   35     310/ 10/ 19 1012.0R
SHEBOYGAN LAKESH 1500   36     300/  9/ 12 1014.5R
PORT WASHINGTON  1400   37     300/  8/ 10 1014.9S
MILWAUKEE LAKESH 1400   36     310/ 13/ 17   N/A
KENOSHA   LAKESH 1500   37     310/  9/ 16 1014.9R
$$

TC  - TEMPERATURE IN CELSIUS
VSB - VISIBILITY IN STATUTE MILES
WCI - WIND CHILL INDEX
HX  - HEAT INDEX




USA.gov is the U.S. government's official web portal to all federal, state and local government web resources and services.